{"data":{"norad_id":56422,"epoch":"2026-09-20T10:37:20.241696Z","epoch_age_seconds":116980,"freshness":"FRESH","line1":"1 56422U 23061BA  26263.44259539 -.00000346  00000+0 -30334-5 0  9993","line2":"2 56422  43.0035 159.7758 0001532 264.4336  95.6341 15.27574426186744","mean_motion":15.27574426,"eccentricity":0.0001532,"inclination_deg":43.0035,"raan_deg":159.7758,"arg_perigee_deg":264.4336,"mean_anomaly_deg":95.6341,"bstar":-3.0334e-6,"rev_number":18674,"period_min":94.267092685669,"perigee_km":482.01465038473,"apogee_km":484.11692291856,"semimajor_km":6861.2027866516,"source":"CELESTRAK","updated_at":"2026-09-21T09:00:33.439068Z"}}